Location: Canyam�s
(41.5996°N, 2.4450°E)
Time: 04:11:53
(UTC+00:00)

Hubble Space Telescope - Pass Details

Date: 12 August 2020
Orbit: 536 x 540 km, 28.5° (Epoch: 22 September)

Event Time Altitude Azimuth Distance (km) Brightness Sun altitude
Exits shadow 03:53:04 - 196° (SSW) 1,872 3.1 -11.4°
Reaches altitude 10° 03:53:45 10° 187° (S) 1,780 3.1 -11.3°
Maximum altitude 03:54:55 11° 170° (S) 1,715 3.1 -11.1°
Drops below altitude 10° 03:56:05 10° 154° (SSE) 1,781 3.4 -10.9°
Sets 03:59:57 0° 118° (ESE) 2,674 4.8 -10.3°
